Content
SEND FEEDBACK

Daily
Averages
Monthly
Summary
United States of America

CHICAGO, ILLINOIS


Home > North America > United States > Illinois
Elevation: 205 meters     Latitude: 41 59N     Longitude: 087 54W

WEATHER
 
SELECT A DAY
Number of Records: 199,784;   Date Range: 7/8/95 - 12/24/14
 
SHARE

PRINT THIS DATA

[ ← Previous Day ]
WEATHER ALMANAC - 18 AUGUST, 2013
[ Next Day → ]
[ °F ]   °C
Weather ElementAverageHighLow
Temperature21.6 °C26.7 °C (1:52 pm)15.6 °C (4:52 am)
Dewpoint14.1 °C17.8 °C (8:52 am)12.2 °C (4:52 pm)
Humidity65.4 %90 % (3:52 am)42 % (4:52 pm)
Barometer1021.7 hPa1023.4 hPa (6:52 am)1020.3 hPa (5:52 pm)
Wind Speed5.1 km/h16.7 km/h (4:52 pm)
Weather ElementAverage
Visibility14.3 km
Wind DirectionNNE (21.3 °)

Weather ElementTotal
Precipitation---
Cooling Degree Days2.8 (Base 18.3)
Growing Degree Days11.2 (Base 10)
Averaged from 23 records on 18 August, 2013
WEATHER CONDITIONS BREAKOUT
WIND DIRECTION BREAKOUT
WEATHER BY HOUR - 18 AUGUST, 2013
[ °F ]   °C
Local TimeTemperatureDewpointHumidityBarometerVisibilityWind DirectionWind SpeedGust SpeedPrecipitationEventsConditions
1:52 AM17.2 °C15 °C87 %1022.4 hPa14.5 kmCalmClear
2:52 AM17.2 °C15 °C87 %1022.4 hPa11.3 kmCalmClear
3:52 AM16.1 °C14.4 °C90 %1022.4 hPa9.7 kmCalmClear
4:52 AM15.6 °C13.9 °C90 %1022.4 hPa9.7 kmCalmClear
5:52 AM15.6 °C13.9 °C90 %1023 hPa9.7 kmCalmClear
6:52 AM16.1 °C14.4 °C90 %1023.4 hPa8 kmCalmClear
7:52 AM19.4 °C16.1 °C81 %1023.4 hPa11.3 kmCalmClear
8:52 AM22.8 °C17.8 °C73 %1023.4 hPa16.1 kmNorth (10°)5.6 km/hClear
9:52 AM25 °C14.4 °C52 %1023.4 hPa16.1 kmVariable5.6 km/hPartly Cloudy
10:52 AM25 °C13.9 °C50 %1023.4 hPa16.1 kmVariable9.3 km/hPartly Cloudy
11:52 AM25.6 °C12.8 °C45 %1022.7 hPa16.1 kmVariable11.1 km/hPartly Cloudy
12:52 PM26.1 °C13.3 °C45 %1022.4 hPa16.1 kmSE (130°)14.8 km/hPartly Cloudy
1:52 PM26.7 °C14.4 °C47 %1021.7 hPa16.1 kmESE (120°)13 km/hClear
2:52 PM26.1 °C13.3 °C45 %1021.3 hPa16.1 kmVariable9.3 km/hClear
3:52 PM26.1 °C12.8 °C44 %1020.7 hPa16.1 kmVariable11.1 km/hClear
4:52 PM26.1 °C12.2 °C42 %1020.7 hPa16.1 kmENE (60°)16.7 km/hClear
5:52 PM25 °C12.2 °C45 %1020.3 hPa16.1 kmEast (80°)13 km/hClear
6:52 PM23.9 °C12.8 °C50 %1020.3 hPa16.1 kmEast (90°)9.3 km/hClear
7:52 PM22.8 °C13.3 °C55 %1020.3 hPa16.1 kmCalmClear
8:52 PM20 °C13.9 °C68 %1020.7 hPa16.1 kmCalmClear
9:52 PM20 °C14.4 °C70 %1020.7 hPa16.1 kmCalmClear
10:52 PM18.9 °C15 °C78 %1020.7 hPa16.1 kmCalmClear
11:52 PM18.3 °C15 °C81 %1020.3 hPa14.5 kmCalmClear
Hourly data recorded from KPWK, located 0 kilometers away from Chicago, Illinois







STORIES FROM OUR PARTNERS